When you browse on this site, cookies collect data to enhance your experience and personalize the content and advertising you see.
Visit our Privacy Policy to learn more. By continuing to use the site, you agree to this use of cookies and data.
  • In Austria
  • List of Countries
  • For 7 days
  • Water Temperature
  • Weather Map
  • News
  • Weather Widgets
  • user-avatar
    Login

    Hourly Weather Rangpur

    Today, 28 February, Friday

    Time Temperature Precipitation Wind Pressure Humidity
    00:00 +23°C° 0 mm 1 mps 758 mmHg 50%
    01:00 +22°C° 0 mm 1 mps 757 mmHg 52%
    02:00 +22°C° 0 mm 1 mps 757 mmHg 54%
    03:00 +21°C° 0 mm 1 mps 756 mmHg 56%
    04:00 +21°C° 0 mm 1 mps 756 mmHg 57%
    05:00 +21°C° 0 mm 1 mps 757 mmHg 59%
    06:00 +19°C° 0 mm 2 mps 757 mmHg 62%
    07:00 +21°C° 0 mm 2 mps 758 mmHg 59%
    08:00 +22°C° 0 mm 3 mps 758 mmHg 55%
    09:00 +25°C° 0 mm 3 mps 758 mmHg 51%
    10:00 +26°C° 0 mm 3 mps 758 mmHg 46%
    11:00 +28°C° 0 mm 3 mps 758 mmHg 41%
    12:00 +29°C° 0 mm 3 mps 758 mmHg 36%
    13:00 +30°C° 0 mm 3 mps 757 mmHg 33%
    14:00 +30°C° 0 mm 2 mps 756 mmHg 30%
    15:00 +31°C° 0 mm 1 mps 755 mmHg 27%
    16:00 +30°C° 0 mm 1 mps 755 mmHg 29%
    17:00 +29°C° 0 mm 1 mps 755 mmHg 31%
    18:00 +28°C° 0 mm 1 mps 755 mmHg 34%
    19:00 +27°C° 0 mm 2 mps 756 mmHg 36%
    20:00 +26°C° 0 mm 2 mps 756 mmHg 38%
    21:00 +25°C° 0 mm 2 mps 757 mmHg 40%
    22:00 +25°C° 0 mm 2 mps 757 mmHg 41%
    23:00 +24°C° 0 mm 2 mps 757 mmHg 43%

    Tomorrow, 29 February, Saturday

    Time Temperature Precipitation Wind Pressure Humidity
    00:00 +23°C° 0 mm 1 mps 756 mmHg 44%
    01:00 +23°C° 0 mm 1 mps 756 mmHg 46%
    02:00 +22°C° 0 mm 1 mps 755 mmHg 48%
    03:00 +22°C° 0 mm 1 mps 755 mmHg 49%
    04:00 +21°C° 0 mm 1 mps 755 mmHg 51%
    05:00 +21°C° 0 mm 1 mps 755 mmHg 52%
    06:00 +21°C° 0 mm 1 mps 755 mmHg 54%
    07:00 +21°C° 0 mm 2 mps 756 mmHg 50%
    08:00 +24°C° 0 mm 3 mps 756 mmHg 47%
    09:00 +26°C° 0 mm 3 mps 757 mmHg 43%
    10:00 +27°C° 0 mm 3 mps 756 mmHg 39%
    11:00 +29°C° 0 mm 3 mps 756 mmHg 35%
    12:00 +30°C° 0 mm 3 mps 756 mmHg 31%
    13:00 +31°C° 0 mm 2 mps 755 mmHg 28%
    14:00 +31°C° 0 mm 1 mps 755 mmHg 26%
    15:00 +30°C° 0 mm 0 mps 754 mmHg 24%
    16:00 +31°C° 0 mm 1 mps 754 mmHg 26%
    17:00 +30°C° 0 mm 1 mps 754 mmHg 28%
    18:00 +29°C° 0 mm 1 mps 754 mmHg 30%
    19:00 +28°C° 0 mm 1 mps 755 mmHg 32%
    20:00 +27°C° 0 mm 1 mps 755 mmHg 34%
    21:00 +26°C° 0 mm 2 mps 756 mmHg 36%
    22:00 +26°C° 0 mm 2 mps 756 mmHg 37%
    23:00 +25°C° 0 mm 2 mps 756 mmHg 38%

    Day after tomorrow, 1 March, Sunday

    Time Temperature Precipitation Wind Pressure Humidity
    00:00 +25°C° 0 mm 1 mps 756 mmHg 39%
    01:00 +24°C° 0 mm 2 mps 755 mmHg 41%
    02:00 +24°C° 0 mm 2 mps 755 mmHg 43%
    03:00 +23°C° 0 mm 2 mps 755 mmHg 44%
    04:00 +23°C° 0 mm 2 mps 755 mmHg 46%
    05:00 +22°C° 0 mm 1 mps 755 mmHg 49%
    06:00 +22°C° 0 mm 1 mps 755 mmHg 51%
    07:00 +23°C° 0 mm 2 mps 756 mmHg 47%
    08:00 +25°C° 0 mm 2 mps 757 mmHg 44%
    09:00 +27°C° 0 mm 2 mps 757 mmHg 41%
    10:00 +29°C° 0 mm 2 mps 757 mmHg 36%
    11:00 +30°C° 0 mm 1 mps 757 mmHg 32%
    12:00 +32°C° 0 mm 1 mps 756 mmHg 27%
    13:00 +32°C° 0 mm 1 mps 755 mmHg 26%
    14:00 +34°C° 0 mm 2 mps 754 mmHg 24%
    15:00 +34°C° 0 mm 2 mps 754 mmHg 22%
    16:00 +32°C° 0 mm 2 mps 753 mmHg 24%
    17:00 +31°C° 0 mm 2 mps 753 mmHg 26%
    18:00 +30°C° 0 mm 2 mps 753 mmHg 28%
    19:00 +29°C° 0 mm 2 mps 753 mmHg 29%
    20:00 +28°C° 0 mm 2 mps 754 mmHg 30%
    21:00 +28°C° 0 mm 1 mps 754 mmHg 32%
    22:00 +27°C° 0 mm 1 mps 754 mmHg 33%
    23:00 +26°C° 0 mm 1 mps 754 mmHg 34%

    2 March, Monday

    Time Temperature Precipitation Wind Pressure Humidity
    00:00 +26°C° 0 mm 1 mps 754 mmHg 36%
    01:00 +25°C° 0 mm 1 mps 754 mmHg 37%
    02:00 +25°C° 0 mm 1 mps 754 mmHg 38%
    03:00 +24°C° 0 mm 1 mps 754 mmHg 40%
    04:00 +24°C° 0 mm 1 mps 754 mmHg 41%
    05:00 +23°C° 0 mm 1 mps 754 mmHg 42%
    06:00 +23°C° 0 mm 1 mps 754 mmHg 43%
    07:00 +24°C° 0 mm 1 mps 755 mmHg 40%
    08:00 +26°C° 0 mm 1 mps 755 mmHg 37%
    09:00 +28°C° 0 mm 2 mps 756 mmHg 34%
    10:00 +29°C° 0 mm 1 mps 756 mmHg 31%
    11:00 +31°C° 0 mm 1 mps 756 mmHg 28%
    12:00 +33°C° 0 mm 1 mps 755 mmHg 25%
    13:00 +34°C° 0 mm 2 mps 755 mmHg 24%
    14:00 +35°C° 0 mm 3 mps 754 mmHg 22%
    15:00 +35°C° 0 mm 4 mps 753 mmHg 21%
    16:00 +34°C° 0 mm 3 mps 753 mmHg 23%
    17:00 +33°C° 0 mm 3 mps 753 mmHg 26%
    18:00 +31°C° 0 mm 2 mps 752 mmHg 28%
    19:00 +30°C° 0 mm 2 mps 753 mmHg 32%
    20:00 +28°C° 0 mm 2 mps 753 mmHg 35%
    21:00 +27°C° 0 mm 2 mps 754 mmHg 38%
    22:00 +26°C° 0 mm 2 mps 754 mmHg 41%
    23:00 +26°C° 0 mm 2 mps 754 mmHg 43%

    3 March, Tuesday

    Time Temperature Precipitation Wind Pressure Humidity
    00:00 +25°C° 0 mm 2 mps 754 mmHg 45%
    01:00 +24°C° 0 mm 2 mps 754 mmHg 47%
    02:00 +24°C° 0 mm 1 mps 754 mmHg 49%
    03:00 +23°C° 0 mm 1 mps 754 mmHg 51%
    04:00 +23°C° 0 mm 1 mps 754 mmHg 51%
    05:00 +23°C° 0 mm 2 mps 754 mmHg 51%
    06:00 +22°C° 0 mm 3 mps 754 mmHg 52%
    07:00 +24°C° 0 mm 3 mps 755 mmHg 50%
    08:00 +25°C° 0 mm 3 mps 755 mmHg 49%
    09:00 +26°C° 0 mm 3 mps 756 mmHg 47%
    10:00 +27°C° 0 mm 3 mps 755 mmHg 43%
    11:00 +29°C° 0 mm 3 mps 755 mmHg 38%
    12:00 +31°C° 0 mm 3 mps 755 mmHg 34%
    13:00 +33°C° 0 mm 3 mps 754 mmHg 31%
    14:00 +34°C° 0 mm 2 mps 753 mmHg 29%
    15:00 +33°C° 0 mm 1 mps 752 mmHg 26%
    16:00 +34°C° 0 mm 2 mps 752 mmHg 27%
    17:00 +32°C° 0 mm 2 mps 752 mmHg 28%
    18:00 +31°C° 0 mm 2 mps 752 mmHg 29%
    19:00 +29°C° 0 mm 4 mps 752 mmHg 36%
    20:00 +28°C° 0 mm 5 mps 753 mmHg 42%
    21:00 +26°C° 0 mm 7 mps 753 mmHg 49%
    22:00 +24°C° 0 mm 7 mps 754 mmHg 54%
    23:00 +23°C° 0 mm 7 mps 754 mmHg 60%

    4 March, Wednesday

    Time Temperature Precipitation Wind Pressure Humidity
    00:00 +22°C° 0 mm 7 mps 754 mmHg 65%
    01:00 +22°C° 0 mm 7 mps 753 mmHg 67%
    02:00 +21°C° 0 mm 6 mps 753 mmHg 68%
    03:00 +21°C° 0 mm 6 mps 753 mmHg 69%
    04:00 +21°C° 0 mm 5 mps 753 mmHg 70%
    05:00 +20°C° 0 mm 5 mps 753 mmHg 71%
    06:00 +20°C° 0 mm 4 mps 754 mmHg 72%
    07:00 +22°C° 0 mm 5 mps 754 mmHg 67%
    08:00 +23°C° 0 mm 5 mps 755 mmHg 62%
    09:00 +25°C° 0 mm 5 mps 756 mmHg 58%
    10:00 +27°C° 0 mm 5 mps 756 mmHg 53%
    11:00 +28°C° 0 mm 4 mps 755 mmHg 47%
    12:00 +30°C° 0 mm 4 mps 755 mmHg 42%
    13:00 +31°C° 0 mm 3 mps 754 mmHg 39%
    14:00 +32°C° 0 mm 2 mps 753 mmHg 36%
    15:00 +33°C° 0 mm 1 mps 752 mmHg 32%
    16:00 +32°C° 0 mm 1 mps 752 mmHg 33%
    17:00 +31°C° 0 mm 2 mps 752 mmHg 34%
    18:00 +31°C° 0 mm 2 mps 752 mmHg 34%
    19:00 +29°C° 0.1 mm 2 mps 753 mmHg 39%
    20:00 +28°C° 0.1 mm 3 mps 753 mmHg 44%
    21:00 +26°C° 0.1 mm 3 mps 754 mmHg 49%
    22:00 +25°C° 0.1 mm 3 mps 755 mmHg 56%
    23:00 +24°C° 0.1 mm 2 mps 755 mmHg 62%
    Show more